Back to catalog

TITAN 3C TRANSTAGE DEB

LostHEO
NORAD 28836·DEBRIS·🇺🇸 United States

Launched Dec 21, 1965 from Cape Canaveral Space Force Station

Loading…

Next Passes (next 24 hours)

TLE

StaleSource: Space-Track

Epoch: Apr 18, 2026, 20:32 UTC

1 28836U 65108CN  26108.85589171  .00000022  00000-0  65673-3 0  9992
2 28836  26.9590 315.9641 6825202 162.3238 353.1304  2.67582655211187

Track TITAN 3C TRANSTAGE DEB in real time with AllMySat

Download on the App Store